Location: Zagreb
(45.8000°N, 16.0000°E)
Time: 13:59:10
(UTC+02:00)

Tiros 1 despin weight - Pass Details

Date: 14 August 2022
Orbit: 590 x 639 km, 48.2° (Epoch: 23 September)

Event Time Altitude Azimuth Distance (km) Brightness Sun altitude
Rises 13:52:26 0° 261° (W) 2,853 ? 56.6°
Reaches altitude 10° 13:54:45 10° 263° (W) 1,943 ? 56.5°
Maximum altitude 13:59:12 72° 349° (N) 629 ? 56.2°
Drops below altitude 10° 14:03:36 10° 74° (ENE) 1,925 ? 55.8°
Sets 14:05:53 0° 76° (ENE) 2,823 ? 55.6°
